Torna al catalogo

STARLINK-32232

AttivoComunicazioniVLEO
NORAD 60431·PAYLOAD·🇺🇸 United States

Lanciato Aug 12, 2024 da Cape Canaveral Space Force Station

Loading…

Prossimi Passaggi (prossime 24 ore)

TLE

AggiornatoSource: CelesTrak SupGP

Epoca: Sep 14, 2026, 21:06 UTC

1 60431C 24144G   26257.87965278  .00024252  00000+0  71684-3 0  2573
2 60431  53.1599  55.8691 0001202  77.9629 158.4537 15.34365262    18

Traccia STARLINK-32232 in tempo reale con AllMySat

Download on the App Store